Location: ????????
(48.4751°N, 37.6926°E)
Time: 13:41:53
(UTC+00:00)

CZ-2C R/B - Pass Details

Date: 20 January 2021
Orbit: 785 x 870 km, 98.2° (Epoch: 27 February)

Event Time Altitude Azimuth Distance (km) Brightness Sun altitude
Exits shadow 16:04:21 31° 99° (E) 1,466 3.4 -18.7°
Drops below altitude 10° 16:09:02 10° 156° (SSE) 2,504 5.0 -19.5°
Sets 16:11:42 0° 166° (SSE) 3,441 5.8 -19.9°
